Weather reports worldwide

Advertisment
Ajaccio, France (7761): temperature & dewpoint: 12.10.2018 19:00:00 - 18.10.2018 19:00:00 (CEST)Ajaccio, France (7761): temperature 5cm: 12.10.2018 19:00:00 - 18.10.2018 19:00:00 (CEST)Ajaccio, France (7761): temperature -20cm & temperature -100cm: 12.10.2018 19:00:00 - 18.10.2018 19:00:00 (CEST)Ajaccio, France (7761): wind speed & gusts: 12.10.2018 19:00:00 - 18.10.2018 19:00:00 (CEST)Ajaccio, France (7761): wind direction: 12.10.2018 19:00:00 - 18.10.2018 19:00:00 (CEST)Ajaccio, France (7761): reduced air pressure: 12.10.2018 19:00:00 - 18.10.2018 19:00:00 (CEST)Ajaccio, France (7761): visibility: 12.10.2018 19:00:00 - 18.10.2018 19:00:00 (CEST)Ajaccio, France (7761): sunshine duration: 12.10.2018 19:00:00 - 18.10.2018 19:00:00 (CEST)Ajaccio, France (7761): precipitation: 12.10.2018 19:00:00 - 18.10.2018 19:00:00 (CEST)
Date & Time tt [°C] td [°C] tt 5cm [°C] tt -20cm [°C] tt -100cm [°C] ff [km/h] ff [kn] fx [km/h] fx [kn] dd ppp [hPa] vv [km] sd [min] rr [mm]
18.10.2018 19:00:00 - - - - - - - - - - - - - -
18.10.2018 18:00:00 23,6 18,5 22,3 21,4 23,1 12 6 18 10 SSW 1010,1 59 30 0,0
18.10.2018 17:00:00 25,8 17,7 26,1 21,1 23,1 8 5 19 11 WSW 1009,8 48 60 0,0
18.10.2018 16:00:00 26,3 16,0 26,8 20,8 23,1 14 8 23 13 W 1009,7 29 60 0,0
18.10.2018 15:00:00 25,9 17,8 31,0 20,6 23,1 14 8 22 12 SW 1009,8 34 60 0,0
18.10.2018 14:00:00 26,9 15,0 32,0 20,5 23,1 8 4 12 6 WSW 1010,2 7 60 0,0
18.10.2018 13:00:00 26,3 14,4 28,1 20,4 23,1 4 2 8 5 WSW 1011,1 60 50 0,0
18.10.2018 12:00:00 23,4 14,7 22,9 20,5 23,2 3 1 10 6 E 1011,8 10 18 0,0
18.10.2018 11:00:00 20,2 14,6 21,0 20,5 23,2 6 3 11 6 NE 1011,8 32 0 0,0
18.10.2018 10:00:00 18,9 14,4 16,6 20,6 23,2 6 3 18 10 NE 1011,8 45 8 0,0
18.10.2018 09:00:00 15,9 13,0 14,5 20,7 23,2 10 5 17 9 NE 1011,8 43 0 0,0
18.10.2018 08:00:00 14,8 12,5 13,7 20,8 23,2 9 5 17 9 NE 1011,6 51 0 0,0
18.10.2018 07:00:00 14,4 12,8 13,5 20,9 23,2 12 7 16 9 ENE 1011,4 51 0 0,0
18.10.2018 06:00:00 14,9 12,9 14,1 21,0 23,2 9 5 16 9 NE 1011,6 52 0 0,0
18.10.2018 05:00:00 15,2 13,6 13,9 21,1 23,2 8 4 14 8 ENE 1011,3 51 0 0,0
18.10.2018 04:00:00 15,8 13,5 14,8 21,2 23,2 7 4 14 8 NE 1011,7 57 0 0,0
18.10.2018 03:00:00 16,2 14,0 15,6 21,3 23,2 10 6 17 9 NE 1012,2 47 0 0,0
18.10.2018 02:00:00 16,6 14,4 15,8 21,4 23,2 11 6 14 8 NE 1012,9 45 0 0,0
18.10.2018 01:00:00 17,0 14,5 16,3 21,4 23,2 8 4 15 8 NE 1013,1 39 0 0,0
18.10.2018 00:00:00 17,2 14,8 16,4 21,5 23,2 8 5 15 8 NE 1013,6 36 0 0,0
17.10.2018 23:00:00 17,3 15,3 16,5 21,6 23,2 10 5 15 8 NNE 1013,7 34 0 0,0
17.10.2018 22:00:00 17,6 15,8 16,2 21,6 23,2 8 5 13 7 ENE 1013,6 32 0 0,0
17.10.2018 21:00:00 18,8 16,8 17,3 21,6 23,3 5 3 8 5 ENE 1013,1 21 0 0,0
17.10.2018 20:00:00 19,6 17,0 18,1 21,5 23,2 6 4 10 5 ENE 1012,8 16 0 0,0
17.10.2018 19:00:00 21,0 17,2 19,2 21,4 23,3 6 3 9 5 S 1012,6 5 12 0,0
17.10.2018 18:00:00 22,8 18,3 22,2 21,2 23,3 8 5 11 6 SW 1011,9 50 17 0,0
17.10.2018 17:00:00 22,4 16,9 23,2 21,0 23,2 5 3 11 6 WNW 1012,2 39 0 0,0
17.10.2018 16:00:00 22,5 17,0 24,0 20,9 23,3 8 4 15 8 W 1012,6 43 0 0,0
17.10.2018 15:00:00 22,7 15,8 24,8 20,9 23,3 8 4 12 7 NE 1012,9 60 14 0,0
17.10.2018 14:00:00 21,6 17,6 20,2 20,8 23,3 5 3 14 8 NE 1013,2 47 2 0,0
17.10.2018 13:00:00 20,8 17,0 20,3 20,8 23,3 8 4 13 7 NE 1014,0 50 0 0,0
17.10.2018 12:00:00 19,8 17,4 18,7 20,8 23,3 7 4 11 6 NNE 1014,2 30 1 0,0
17.10.2018 11:00:00 18,6 16,0 18,0 20,8 23,3 3 1 8 4 NE 1014,2 38 0 0,0
17.10.2018 10:00:00 17,9 16,4 16,8 20,9 23,3 6 4 15 8 NNE 1014,0 31 1 0,0
17.10.2018 09:00:00 16,8 15,7 15,4 21,0 23,3 7 4 11 6 NNE 1014,1 32 0 0,0
17.10.2018 08:00:00 16,2 14,9 15,0 21,1 23,3 2 1 11 6 SSW 1013,7 32 0 0,0
17.10.2018 07:00:00 16,1 14,8 14,8 21,2 23,3 8 4 19 11 NE 1014,0 29 0 2,0
17.10.2018 06:00:00 16,2 14,0 14,8 21,4 23,3 9 5 16 9 NE 1014,2 13 0 0,8
17.10.2018 05:00:00 15,7 13,5 14,7 21,5 23,3 12 6 17 9 NNE 1014,1 56 0 0,0
17.10.2018 04:00:00 15,2 13,6 14,1 21,7 23,4 9 5 19 10 NE 1015,0 48 0 0,0
17.10.2018 03:00:00 14,9 12,9 14,2 21,8 23,3 9 5 14 7 NE 1015,4 36 0 0,0
17.10.2018 02:00:00 15,4 13,8 14,3 21,9 23,3 5 3 14 8 ENE 1015,6 23 0 0,0
17.10.2018 01:00:00 15,9 14,3 14,7 22,1 23,4 9 5 17 9 NE 1015,7 29 0 0,0
17.10.2018 00:00:00 16,0 14,7 14,9 22,1 23,3 9 5 14 8 NE 1015,8 11 0 0,0
16.10.2018 23:00:00 16,2 14,7 15,2 22,3 23,4 7 4 13 7 ENE 1016,5 6 0 0,0
16.10.2018 22:00:00 16,6 15,0 15,6 22,3 23,4 7 4 11 6 NE 1016,4 14 0 0,0
16.10.2018 21:00:00 17,8 15,6 16,3 22,3 23,4 7 4 11 6 NE 1016,3 17 0 0,0
16.10.2018 20:00:00 18,7 15,2 17,2 22,2 23,4 5 3 8 4 ENE 1016,1 19 0 0,0
16.10.2018 19:00:00 20,5 15,5 18,6 22,1 23,4 5 3 15 8 SSE 1015,8 15 0 0,0
16.10.2018 18:00:00 21,6 15,2 21,1 21,8 23,4 11 6 16 9 SSW 1015,3 32 49 0,0
16.10.2018 17:00:00 22,9 16,7 24,1 21,6 23,4 13 7 23 12 WSW 1015,0 20 60 0,0
16.10.2018 16:00:00 24,2 15,4 24,7 21,4 23,4 4 2 13 7 NNE 1014,8 53 60 0,0
16.10.2018 15:00:00 23,3 14,8 27,5 21,4 23,4 10 5 18 10 NNE 1014,9 60 60 0,0
16.10.2018 14:00:00 21,5 16,0 20,4 21,3 23,4 8 4 17 9 NNE 1015,6 33 37 0,0
16.10.2018 13:00:00 19,2 16,4 18,6 21,3 23,4 16 8 20 11 NNE 1016,3 20 19 0,0
16.10.2018 12:00:00 18,3 16,5 17,3 21,4 23,5 6 4 9 5 NNE 1016,8 7 0 0,2
16.10.2018 11:00:00 17,5 15,8 16,6 21,4 23,4 4 2 5 3 ENE 1016,6 6 0 0,2
16.10.2018 10:00:00 17,0 15,5 16,4 21,5 23,4 3 1 6 4 ESE 1016,1 11 0 0,0
16.10.2018 09:00:00 16,7 15,4 15,4 21,5 23,4 5 3 11 6 NNE 1015,4 11 0 0,6
16.10.2018 08:00:00 16,3 15,0 15,4 21,6 23,5 7 4 9 5 NE 1015,2 8 0 0,0
16.10.2018 07:00:00 16,5 14,9 15,4 21,7 23,5 3 2 9 5 E 1015,4 7 0 0,8
16.10.2018 06:00:00 16,6 14,6 15,3 21,8 23,5 6 3 12 7 NNE 1015,2 10 0 0,2
16.10.2018 05:00:00 16,9 14,5 15,3 21,8 23,5 8 4 12 6 NE 1015,0 7 0 0,8
16.10.2018 04:00:00 17,7 13,8 15,5 21,9 23,5 3 2 9 5 SE 1015,2 10 0 0,2
16.10.2018 03:00:00 18,2 12,6 17,4 22,0 23,5 8 4 10 6 ENE 1015,2 21 0 0,0
16.10.2018 02:00:00 18,5 12,5 17,1 22,1 23,5 7 4 17 9 NE 1015,4 21 0 0,0
16.10.2018 01:00:00 17,9 13,0 17,2 22,1 23,5 8 4 10 5 ENE 1015,7 17 0 0,0
16.10.2018 00:00:00 18,4 12,8 17,3 22,1 23,5 5 3 9 5 ENE 1015,6 17 0 0,0
15.10.2018 23:00:00 18,4 12,4 17,5 22,1 23,5 6 3 13 7 ENE 1015,6 19 0 0,0
15.10.2018 22:00:00 19,1 12,8 17,9 22,2 23,5 0 0 6 3 N 1015,3 17 0 0,0
15.10.2018 21:00:00 19,9 11,9 18,3 22,1 23,5 3 2 9 5 NE 1014,6 18 0 0,0
15.10.2018 20:00:00 20,8 12,5 18,8 22,1 23,5 3 2 5 3 ENE 1014,5 24 0 0,0
15.10.2018 19:00:00 21,5 12,1 20,0 21,9 23,5 2 1 9 5 E 1014,3 26 0 0,0
15.10.2018 18:00:00 22,9 11,9 22,4 21,7 23,5 7 4 19 11 NW 1013,8 31 0 0,0
15.10.2018 17:00:00 24,5 12,8 24,8 21,5 23,5 5 3 18 10 SSE 1013,3 33 0 0,0
15.10.2018 16:00:00 26,0 9,3 27,1 21,3 23,5 10 5 22 12 SE 1012,7 37 7 0,0
15.10.2018 15:00:00 26,5 8,9 27,3 21,1 23,6 13 7 26 14 ESE 1012,5 43 20 0,0
15.10.2018 14:00:00 26,3 8,3 28,9 20,9 23,5 4 2 11 6 SSW 1012,8 20 36 0,0
15.10.2018 13:00:00 24,7 9,8 27,6 20,9 23,6 4 2 9 5 WSW 1013,6 17 20 0,0
15.10.2018 12:00:00 23,7 7,7 25,5 21,0 23,6 4 2 9 5 NW 1013,7 27 27 0,0
15.10.2018 11:00:00 22,3 8,8 24,1 21,1 23,6 0 0 9 5 N 1014,0 17 51 0,0
15.10.2018 10:00:00 18,2 10,8 15,1 21,2 23,6 6 3 10 6 ENE 1013,9 18 49 0,0
15.10.2018 09:00:00 14,2 9,0 12,8 21,4 23,6 4 2 15 8 NE 1013,5 20 2 0,0
15.10.2018 08:00:00 13,3 8,4 11,7 21,6 23,6 12 6 19 11 NE 1013,1 21 0 0,0
15.10.2018 07:00:00 12,9 8,2 11,8 21,7 23,6 11 6 18 10 NE 1013,5 23 0 0,0
15.10.2018 06:00:00 12,8 8,7 11,5 21,9 23,6 14 8 18 10 NE 1013,7 23 0 0,0
15.10.2018 05:00:00 12,9 8,8 12,0 22,1 23,6 8 5 19 10 NE 1013,8 23 0 0,0
15.10.2018 04:00:00 13,6 8,8 12,2 22,2 23,6 13 7 20 11 NE 1014,0 23 0 0,0
15.10.2018 03:00:00 13,0 9,1 12,1 22,4 23,6 12 6 17 9 NE 1014,4 22 0 0,0
15.10.2018 02:00:00 14,4 9,0 13,3 22,6 23,7 11 6 19 10 NE 1014,8 21 0 0,0
15.10.2018 01:00:00 14,4 9,6 13,4 22,7 23,7 11 6 21 12 NE 1014,9 21 0 0,0
15.10.2018 00:00:00 15,1 9,9 13,7 22,8 23,7 11 6 16 9 NE 1015,1 21 0 0,0
14.10.2018 23:00:00 15,4 10,6 14,2 22,9 23,6 11 6 16 9 NE 1015,2 20 0 0,0
14.10.2018 22:00:00 16,5 11,6 15,2 23,0 23,6 3 1 16 9 NE 1015,3 13 0 0,0
14.10.2018 21:00:00 17,2 12,1 16,0 22,9 23,6 7 4 14 8 ENE 1015,1 16 0 0,0
14.10.2018 20:00:00 18,7 12,9 16,9 22,9 23,7 9 5 11 6 ENE 1015,1 10 0 0,0
14.10.2018 19:00:00 20,9 13,8 17,5 22,6 23,7 3 2 8 5 SSE 1014,5 22 11 0,0
14.10.2018 18:00:00 24,1 14,2 23,2 22,4 23,7 4 2 10 5 S 1014,1 37 60 0,0
14.10.2018 17:00:00 24,9 13,1 26,3 22,1 23,6 7 4 13 7 SW 1014,7 37 60 0,0
14.10.2018 16:00:00 25,7 12,5 25,7 21,8 23,6 10 5 21 12 SW 1015,0 42 55 0,0
14.10.2018 15:00:00 25,5 13,0 30,9 21,5 23,7 15 8 20 11 WSW 1015,2 47 60 0,0
14.10.2018 14:00:00 25,6 11,4 31,0 21,3 23,7 10 6 40 21 WSW 1015,8 33 60 0,0
14.10.2018 13:00:00 24,9 12,8 30,7 21,3 23,7 15 8 22 12 WSW 1016,6 11 60 0,0
14.10.2018 12:00:00 23,8 12,7 29,9 21,3 23,7 11 6 14 8 SW 1017,0 26 60 0,0
14.10.2018 11:00:00 23,3 10,4 24,7 21,4 23,7 3 2 9 5 NE 1017,3 36 60 0,0
14.10.2018 10:00:00 19,0 12,3 18,4 21,6 23,7 7 4 16 9 NNE 1017,6 20 60 0,0
14.10.2018 09:00:00 15,1 11,1 12,3 21,7 23,7 10 5 16 9 NNE 1017,7 33 57 0,0
14.10.2018 08:00:00 12,9 9,9 11,7 21,9 23,7 9 5 16 9 NE 1017,7 28 0 0,0
14.10.2018 07:00:00 12,6 10,1 11,5 22,1 23,7 10 6 16 9 NE 1017,8 25 0 0,0
14.10.2018 06:00:00 13,1 10,6 11,9 22,2 23,7 10 6 17 9 NE 1018,1 27 0 0,0
14.10.2018 05:00:00 14,1 10,9 13,2 22,4 23,7 10 6 15 8 NE 1018,1 27 0 0,0
14.10.2018 04:00:00 14,4 11,4 13,2 22,6 23,7 11 6 18 10 NE 1018,5 26 0 0,0
14.10.2018 03:00:00 14,4 11,7 13,5 22,7 23,7 11 6 17 9 NE 1019,0 21 0 0,0
14.10.2018 02:00:00 14,9 12,6 13,8 22,9 23,8 11 6 16 9 NE 1019,5 23 0 0,0
14.10.2018 01:00:00 15,8 12,7 14,9 23,1 23,8 8 4 15 8 NE 1019,7 24 0 0,0
14.10.2018 00:00:00 16,4 13,1 15,3 23,2 23,8 8 4 13 7 ENE 1019,8 20 0 0,0
13.10.2018 23:00:00 16,8 13,7 15,8 23,3 23,8 10 5 16 9 NE 1019,9 21 0 0,0
13.10.2018 22:00:00 17,6 14,1 16,5 23,3 23,8 9 5 14 7 NE 1020,0 17 0 0,0
13.10.2018 21:00:00 18,6 15,1 17,5 23,3 23,8 9 5 14 7 NE 1019,8 17 0 0,0
13.10.2018 20:00:00 19,6 14,6 18,2 23,2 23,8 6 3 10 5 NE 1020,0 33 0 0,0
13.10.2018 19:00:00 21,4 18,4 19,8 23,0 23,8 4 2 16 9 S 1019,9 29 31 0,0
13.10.2018 18:00:00 23,0 18,7 22,7 22,8 23,8 10 5 22 12 S 1019,7 37 60 0,0
13.10.2018 17:00:00 24,1 19,0 25,0 22,4 23,8 16 9 21 11 SSW 1020,0 41 60 0,0
13.10.2018 16:00:00 24,2 18,4 25,5 22,1 23,8 14 7 22 12 SSW 1020,4 60 60 0,0
13.10.2018 15:00:00 24,5 17,2 30,1 21,9 23,8 16 9 23 12 SSW 1020,8 60 60 0,0
13.10.2018 14:00:00 24,4 17,4 30,7 21,7 23,8 15 8 20 11 SW 1021,2 60 60 0,0
13.10.2018 13:00:00 24,0 17,3 31,2 21,6 23,8 13 7 24 13 SW 1022,0 56 60 0,0
13.10.2018 12:00:00 23,6 16,1 31,3 21,5 23,8 11 6 14 7 SW 1022,5 46 60 0,0
13.10.2018 11:00:00 23,1 15,4 25,4 21,6 23,8 5 3 9 5 SW 1022,6 20 60 0,0
13.10.2018 10:00:00 20,2 14,6 20,3 21,8 23,8 8 4 14 8 NNE 1022,8 51 60 0,0
13.10.2018 09:00:00 16,8 13,5 14,9 21,9 23,8 10 5 16 8 NNE 1022,7 52 58 0,0
13.10.2018 08:00:00 15,3 13,1 14,0 22,1 23,8 11 6 18 10 NE 1022,5 41 0 0,0
13.10.2018 07:00:00 15,4 13,2 14,5 22,2 23,8 11 6 19 10 NE 1022,3 47 0 0,0
13.10.2018 06:00:00 15,4 13,4 14,6 22,3 23,9 9 5 17 9 NE 1022,4 36 0 0,0
13.10.2018 05:00:00 15,8 13,8 15,1 22,5 23,8 9 5 19 11 NE 1022,6 35 0 0,0
13.10.2018 04:00:00 16,0 14,4 15,0 22,6 23,9 11 6 17 9 NE 1022,8 32 0 0,0
13.10.2018 03:00:00 16,2 14,6 15,4 22,7 23,9 10 5 18 10 NE 1023,4 24 0 0,0
13.10.2018 02:00:00 16,5 15,0 15,6 22,9 23,8 12 6 20 11 NNE 1023,6 33 0 0,0
13.10.2018 01:00:00 16,9 15,2 16,1 23,0 23,9 8 5 16 8 NE 1023,8 20 0 0,0
13.10.2018 00:00:00 17,4 15,7 16,6 23,0 23,8 10 5 13 7 NE 1024,1 17 0 0,0
12.10.2018 23:00:00 18,0 16,3 17,2 23,1 23,9 8 5 13 7 NE 1023,9 17 0 0,0
12.10.2018 22:00:00 19,4 17,5 18,3 23,1 23,9 5 3 10 5 NE 1023,8 24 0 0,0
12.10.2018 21:00:00 20,4 18,2 19,0 23,1 23,9 6 3 9 5 NE 1023,8 14 0 0,0
12.10.2018 20:00:00 21,1 18,7 20,5 23,0 23,9 4 2 9 5 NE 1023,6 16 0 0,0
12.10.2018 19:00:00 21,7 18,5 20,1 22,9 23,9 3 2 8 5 NNE 1023,4 22 10 0,0

tt = temperature
td = dewpoint
tt 5cm = temperature 5cm
tt -20cm = temperature -20cm
tt -100cm = temperature -100cm
ff = wind speed
fx = gusts
dd = wind direction
ppp = reduced air pressure
vv = visibility
sd = sunshine duration
rr = precipitation

Next stations